Location: Bronnegerveen
(52.9548°N, 6.8388°E)
Time: 01:59:43
(UTC+00:00)

Cosmos 1455 Rocket - Pass Details

Date: 15 June 2025
Orbit: 598 x 623 km, 82.5° (Epoch: 07 July)

Event Time Altitude Azimuth Distance (km) Brightness Sun altitude
Rises 01:13:25 0° 350° (N) 2,893 7.5 -10.7°
Reaches altitude 10° 01:15:40 10° 353° (N) 1,979 6.7 -10.5°
Maximum altitude 01:20:02 67° 77° (ENE) 662 3.4 -10.3°
Drops below altitude 10° 01:24:19 10° 160° (SSE) 1,948 5.2 -10.0°
Enters shadow 01:25:24 - 162° (SSE) 2,380 5.6 -9.9°
